Location: Fort Worth, Tx
(32.7431°N, 97.3695°W)
Time: 11:02:42
(UTC-04:00)

A-11 Canister half - Pass Details

Date: 18 August 2024
Orbit: 1524 x 1684 km, 47.3° (Epoch: 13 September)

Event Time Altitude Azimuth Distance (km) Brightness Sun altitude
Rises 07:19:57 0° 303° (WNW) 4,930 11.3 -7.9°
Reaches altitude 10° 07:23:16 10° 299° (WNW) 3,929 10.8 -7.3°
Maximum altitude 07:32:46 49° 228° (SW) 2,032 9.3 -5.4°
Drops below altitude 10° 07:41:59 10° 157° (SSE) 3,809 11.2 -3.5°
Sets 07:45:10 0° 152° (SSE) 4,770 11.7 -2.9°
